KUIPER-00177

导读 | 豆包AI

KUIPER-00177是亚马逊柯伊伯太空互联网项目的卫星,于2026年2月12日由法国阿丽亚娜空间公司发射。作为近地轨道卫星互联网组网的组成部分,它将同项目下数千颗卫星协同,为全球提供高速卫星互联网接入,助力消除数字鸿沟,推动全球网络覆盖,该卫星是柯伊伯计划批量部署阶段的其中一颗卫星,持续推进全球低轨卫星网络建设进程。

Basic Information
目录编号:
67766
目录名称:
KUIPER-00177
国际标识:
2026-030C
轨道中心:
EARTH
卫星名称:
KUIPER-00177
卫星全名:
KUIPER-00177
卫星状态:
在轨 (已飞行30 天)
发射日期:
2026-02-12 UTC
国别 :
美国 (US)
星等 :
--
Orbit Information
数据来源 国际轨道数据 AOE轨道数据
星历时间 2026-03-14T06:00:02+0800
17小时前
查看轨道信息
2026-03-09T06:00:00+0800
5天前
查看轨道信息
半长轴 6860.849km 6834.523km
偏心率 0.0002794 0.0001584
轨道倾角 51.884° 51.884°
近地点辐角 15.157° 10.721°
升交点赤经 198.729° 222.748°
平近点角 295.177° 61.367°
近地点 480.795km 455.303km
远地点 484.629km 457.469km
周期 94.260分钟 93.718分钟
每日圈数 15.276927 15.365281
Detailed Information
使用方式:
暂无
2D Orbit Map
3D Orbit Map
Orbit Altitude Analysis Chart
Orbit Inclination Analysis Chart
Orbit Comprehensive Analysis Chart
View Comprehensive Chart